ORBCOMM FM12 [+]

Last updated on Sat May 13 2023 00:03:01 GMT+0000 (Coordinated Universal Time)

1 25115U 97084D 23132.15032161 .00002301 00000+0 75827-3 0 9999 2 25115 45.0156 74.2228 0006758 312.5814 47.4465 14.40652053330503
UTC large
Height (km)
Speed (km/s)
/
Latitude / Longitude
Inclination (degrees)
Orbital Period (minutes)
Azimuth
Elevation
Range (km)
Doppler Factor

Next 0 passes for location: London (51.5072 / 0.1276)

Sorry there are no passes over London.
ORBCOMM FM12 [+]